Torna al catalogo

STARLINK-34909

AttivoComunicazioniSSO
NORAD 65401·PAYLOAD·🇺🇸 United States

Lanciato Aug 30, 2025 da Vandenberg Space Force Base

Loading…

Prossimi Passaggi (prossime 24 ore)

TLE

AggiornatoSource: CelesTrak SupGP

Epoca: Sep 14, 2026, 22:47 UTC

1 65401C 25191Y   26257.94979167  .00053679  00000+0  16650-2 0  2574
2 65401  97.2846 124.1084 0002409  89.7118 200.6323 15.33435818    11

Traccia STARLINK-34909 in tempo reale con AllMySat

Download on the App Store